Weather History for George, South Africa

Change the Weather History Date:

Sunday, October 23, 2011

  Actual Average Record
Temperature  
Mean Temperature 60 °F -  
Max Temperature 71 °F 69 °F 73 °F (1998)
Min Temperature 50 °F 52 °F 44 °F (2008)
Degree Days  
Heating Degree Days 4    
Growing Degree Days 10 (Base 50)    
Moisture  
Dew Point 50 °F    
Average Humidity 68    
Maximum Humidity 94    
Minimum Humidity 35    
Precipitation  
Precipitation 0.00 in - - ()
Sea Level Pressure  
Sea Level Pressure 29.88 in    
Wind  
Wind Speed 6 mph ()    
Max Wind Speed 15 mph    
Max Gust Speed -    
Visibility 7.8 miles    
Events      
Averages and records for this station are not official NWS values.
T = Trace of Precipitation, MM = Missing Value Source: Averaged Metar Reports

Daily Weather History Graph

Daily Weather History Graph

Search for Another Location

Airport:

Trip Planner

Search our weather history database for the weather conditions in past years. The results will help you decide how hot, cold, wet, or windy it might be!

Date:

Astronomy

Oct. 23, 2011 Rise Set
Actual Time 5:39 AM SAST 6:50 PM SAST
Civil Twilight 5:13 AM SAST 7:16 PM SAST
Nautical Twilight 4:43 AM SAST 7:47 PM SAST
Astronomical Twilight 4:11 AM SAST 8:19 PM SAST
Moon 3:03 AM SAST (10/23) 3:09 PM SAST (10/23)
Length of Visible Light 14h 02m
Length of Day
13h 10m
Waning Crescent, 17% of the Moon is Illuminated
Oct 23
Waning Crescent
Oct 26
New
Nov 2
First Quarter
Nov 10
Full
Nov 18
Last Quarter

Hourly Weather History & Observations

Time (SAST) Temp. Dew Point Humidity Pressure Visibility Wind Dir Wind Speed Gust Speed Precip Events Conditions
12:00 AM 55.4 °F 46.4 °F 72% 29.80 in - NNE 4.6 mph - N/A   Clear
1:00 AM 53.6 °F 48.2 °F 82% 29.80 in 6.2 mi NNE 3.5 mph - N/A   Partly Cloudy
2:00 AM 54 °F 49 °F 76% 29.82 in 12 mi NNE 4.6 mph - -  
3:00 AM 53.6 °F 50.0 °F 88% 29.80 in - North 4.6 mph - N/A   Clear
4:00 AM 50.0 °F 46.4 °F 87% 29.80 in - West 3.5 mph - N/A   Clear
5:00 AM 52 °F 48 °F 82% 29.82 in 12 mi NW 3.5 mph - -  
5:00 AM 51.8 °F 50.0 °F 94% 29.80 in - NW 3.5 mph - N/A   Clear
6:00 AM 51.8 °F 50.0 °F 94% 29.83 in 6.2 mi NNW 4.6 mph - N/A   Partly Cloudy
6:21 AM 55.4 °F 51.8 °F 88% 29.86 in 6.2 mi NNW 5.8 mph - N/A   Partly Cloudy
6:51 AM 59.0 °F 53.6 °F 82% 29.89 in 6.2 mi NW 4.6 mph - N/A   Partly Cloudy
7:00 AM 59.0 °F 51.8 °F 77% 29.89 in - NW 4.6 mph - N/A   Clear
7:25 AM 62.6 °F 53.6 °F 72% 29.89 in - WNW 5.8 mph - N/A   Clear
8:00 AM 64 °F 51 °F 54% 29.88 in 19 mi WNW 12.7 mph - -   Scattered Clouds
8:00 AM 64.4 °F 51.8 °F 64% 29.89 in 6.2 mi WNW 11.5 mph - N/A   Partly Cloudy
9:00 AM 66.2 °F 50.0 °F 56% 29.89 in 6.2 mi West 12.7 mph - N/A   Partly Cloudy
9:24 AM 69.8 °F 50.0 °F 49% 29.89 in 6.2 mi WSW 11.5 mph - N/A   Partly Cloudy
10:00 AM 69.8 °F 50.0 °F 49% 29.89 in 6.2 mi SSW 15.0 mph - N/A   Partly Cloudy
11:00 AM 70 °F 48 °F 35% 29.88 in 31 mi SSW 12.7 mph - -   Scattered Clouds
11:00 AM 69.8 °F 48.2 °F 46% 29.89 in 6.2 mi SSW 12.7 mph - N/A   Partly Cloudy
12:00 PM 69.8 °F 48.2 °F 46% 29.89 in 6.2 mi South 12.7 mph - N/A   Partly Cloudy
1:00 PM 69.8 °F 48.2 °F 46% 29.86 in 6.2 mi South 12.7 mph - N/A   Partly Cloudy
2:00 PM 68 °F 51 °F 45% 29.88 in 12 mi SSW 13.8 mph - -   Scattered Clouds
2:00 PM 68.0 °F 50.0 °F 52% 29.89 in 6.2 mi SSW 13.8 mph - N/A   Partly Cloudy
3:00 PM 64.4 °F 53.6 °F 68% 29.89 in 6.2 mi SSW 12.7 mph - N/A   Scattered Clouds
4:00 PM 62.6 °F 53.6 °F 72% 29.89 in 6.2 mi SSW 11.5 mph - N/A   Scattered Clouds
5:00 PM 64 °F 52 °F 55% 29.91 in 12 mi SSW 11.5 mph - -   Mostly Cloudy
5:00 PM 62.6 °F 51.8 °F 68% 29.92 in 6.2 mi SSW 11.5 mph - N/A   Mostly Cloudy
6:00 PM 60.8 °F 51.8 °F 72% 29.92 in 6.2 mi SSW 8.1 mph - N/A   Mostly Cloudy
7:00 PM 60.8 °F 51.8 °F 72% 29.95 in 6.2 mi Variable 2.3 mph - N/A   Mostly Cloudy
8:00 PM 60 °F 51 °F 63% 29.95 in 12 mi West 3.5 mph - -   Mostly Cloudy
8:00 PM 60.8 °F 50.0 °F 68% 29.95 in 6.2 mi West 3.5 mph - N/A   Mostly Cloudy
9:00 PM 60.8 °F 50.0 °F 68% 29.95 in 6.2 mi WNW 3.5 mph - N/A   Overcast
10:00 PM 59.0 °F 50.0 °F 72% 29.95 in 6.2 mi NW 3.5 mph - N/A   Partly Cloudy
11:00 PM 55.4 °F 50.0 °F 82% 29.92 in - North 3.5 mph - N/A   Clear